Showing default

COSMOS 2464 (GLONASS), 37139

Orbit data source: Space-Track

COSMOS 2464 (GLONASS), 37139 is a Commonwealth of Independent States-origin payload satellite in MEO that was launched on Thu, 02 Sep 2010 UTC via a PROTON-M/DM-2 launch vehicle from the Tyuratam Missile And Space Complex (TTMTR). Payload-class satellites include a variety of spacecraft equipped with specific instruments for various scientific and technological missions. These include communications satellites like Starlink; space stations such as the ISS; scientific satellites like the Hubble; Earth observation satellites from companies like Planet Labs, Umbra, and HawkEye 360; GPS; miniature CubeSats for education and research; and military/defense satellites.

Loading next visibility...
Identifier
37139, 2010-041C
Orbit
MEO
Country
Flag of CISCIS
Related business
Manufacturer
Resehetnev ISS
Mission
Non-operational Defense Navigation
Bus & Motor
URAGAN, Unknown motor
Mass
1,450 kg wet, ~1,200 kg dry
Launch date (UTC)
2010-09-02 (16 years ago)
Launch vehicle
PROTON-M/DM-2
Launch site
Tyuratam Missile And Space Complex (TTMTR)
Object type
Payload
Rocket body
Debris
Shape & HBR
Cyl + 1 Ant + 2 Pan, 3.9 m
Radar Cross Section
8.467 m², Large (>1 m²)

Expand to show TLE details & history
Last TLE update: 7 hours ago

TLE from 7 hours ago
0 COSMOS 2464 (GLONASS)
1 37139U 10041C   26127.90348238  .00000030  00000-0  00000-0 0  9997
2 37139  63.9145 191.6445 0034217  10.9106 350.3916  2.13098516122037
Epoch: 2026-05-07T21:41Z
TLE epoch observation values (Epoch: 2026-05-07T21:41:00.877Z)
Latitude
1.04487°
Longitude
1.15982°
Altitude
19,044.506 km
Speed
3.966 km/s
True Right ascension
12h 48m 37s
True Declination
1° 02' 35"
Sunlit
Object was in daylight at epoch
Visualization orbit readout
Latitude
Unknown
Longitude
Unknown
Altitude
Unknown
Speed
Unknown
Apparent Right ascension
Unknown
Apparent Declination
Unknown
Sunlit
N/A
Visualization observer readout
Local Sidereal Time
12:54:01
Azimuth
Unknown
Elevation
Unknown
Doppler factor
Unknown
Orbital elements
Apogee altitude
19,217.099 km
Perigee altitude
19,042.538 km
Semi-major axis
25,507.956 km
Eccentricity
0.00342
Inclination
63.9145°
RAAN
191.6445°
Arg. of periapsis
10.9106°
True anomaly
350.32588°
Mean anomaly
350.3916°
Eccentric anomaly
350.35877°
Mean motion
0.53276 °/min
Orbital period
675.73 mins
BSTAR
0
Loading maneuver chart data...
Computing Atmospheric mass density...
Loading historical data...
Loading historical data...
Loading historical data...
Loading historical data...
Loading historical data...
Loading historical data...
Loading historical data...

Documentation

Showing up to 5 results
|